sat.trackr.live / text

‹ back to catalog

STARLINK-34566

NORAD 64765 · 2025-147L

PAYLOAD ACTIVE UNKNOWN

§ Identity

Operator
Country
US
Launch date
2025-07-08
Launch site
AFETR
Launch vehicle
Mass (kg)
RCS (m²)

Purposes: comms

External: N2YO · Heavens-Above · Gunter

§ Orbital elements

Epoch: 2026-09-20T20:46:49.124640Z

Period
93.85 min
Inclination
53.1584°
Eccentricity
0.0000666
Mean motion
15.34393775 rev/d
Perigee alt
462.3 km
Apogee alt
463.2 km
Semi-major
6,840.9 km
B*
4.7468e-4
RAAN
51.9528°
Arg perigee
93.6904°
Mean anomaly
266.4175°
Rev number
6,869

§ Raw data

STARLINK-345661 64765U 25147L   26263.86584635  .00015692  00000+0  47468-3 0  99952 64765  53.1584  51.9528 0000666  93.6904 266.4175 15.34393775 68692

JSON: /api/v1/satellites/64765 · /tle

For live sub-satellite position, see the globe view (requires WebGL).

§ Visibility from observer

Set your observer location to see the next 7 days of passes ≥ 10°. The values pass through the URL so the page stays shareable.

No JS? Fill the form by hand. The geolocation button needs JavaScript.